Voltar ao catálogo

STARLINK-30197

AtivoComunicaçõesVLEO
NORAD 57443·PAYLOAD·🇺🇸 United States

Lançado Jul 24, 2023 de Cape Canaveral Space Force Station

Loading…

Próximas Passagens (próximas 24 horas)

TLE

AtualizadoSource: CelesTrak SupGP

Época: Sep 15, 2026, 02:31 UTC

1 57443C 23105P   26258.10534722 -.00004737  00000+0 -17151-3 0  2589
2 57443  42.9997 269.9992 0001405 263.8574  38.5489 15.27589853    17

Acompanhe STARLINK-30197 em tempo real com AllMySat

Download on the App Store